Terminal Aerodrome Forecast
Issued by NWS Pueblo, CO

Home | Current Version | Previous Version | Text Only | Print | Product List | Glossary On
Versions: 1 2 3 4 5 6 7 8 9 10 11 12 13 14 15 16 17 18 19 20 21 22 23 24 25 26 27 28 29 30 31 32 33 34 35 36 37 38 39 40 41 42 43 44
000
FTUS45 KPUB 301120
TAFCOS
TAF
KCOS 301120Z 3012/3112 17007KT P6SM SCT005 BKN012
      TEMPO 3012/3015 BKN005
     FM301600 17007KT P6SM SCT015 BKN022
     FM301900 17010KT P6SM SCT025 SCT050
     FM302100 18011KT P6SM VCTS SCT060CB BKN120
     FM310300 30006KT P6SM SCT080 SCT120=

USA.gov is the U.S. government's official web portal to all federal, state and local government web resources and services.